TimeEDT,TemperatureF,Dew PointF,Humidity,Sea Level PressureIn,VisibilityMPH,Wind Direction,Wind SpeedMPH,Gust SpeedMPH,PrecipitationIn,Events,Conditions,WindDirDegrees,DateUTC
12:15 AM,48.2,35.6,62,30.27,10.0,Calm,Calm,-,N/A,,Clear,0,2013-03-30 04:15:00
12:35 AM,48.2,35.6,62,30.27,10.0,East,3.5,-,N/A,,Clear,100,2013-03-30 04:35:00
12:55 AM,48.2,35.6,62,30.28,10.0,Calm,Calm,-,N/A,,Clear,0,2013-03-30 04:55:00
1:15 AM,46.4,35.6,66,30.27,10.0,Calm,Calm,-,N/A,,Clear,0,2013-03-30 05:15:00
1:35 AM,46.4,35.6,66,30.27,10.0,Calm,Calm,-,N/A,,Clear,0,2013-03-30 05:35:00
1:55 AM,46.4,35.6,66,30.27,10.0,Calm,Calm,-,N/A,,Clear,0,2013-03-30 05:55:00
2:15 AM,44.6,35.6,71,30.27,10.0,Calm,Calm,-,N/A,,Clear,0,2013-03-30 06:15:00
2:35 AM,44.6,35.6,71,30.26,10.0,Calm,Calm,-,N/A,,Clear,0,2013-03-30 06:35:00
2:55 AM,44.6,35.6,71,30.27,10.0,Calm,Calm,-,N/A,,Clear,0,2013-03-30 06:55:00
3:15 AM,44.6,35.6,71,30.26,10.0,Calm,Calm,-,N/A,,Clear,0,2013-03-30 07:15:00
3:35 AM,44.6,37.4,76,30.26,10.0,Calm,Calm,-,N/A,,Clear,0,2013-03-30 07:35:00
3:55 AM,42.8,35.6,76,30.25,10.0,Calm,Calm,-,N/A,,Clear,0,2013-03-30 07:55:00
4:15 AM,42.8,35.6,76,30.25,10.0,South,3.5,-,N/A,,Clear,190,2013-03-30 08:15:00
4:35 AM,42.8,35.6,76,30.24,10.0,Calm,Calm,-,N/A,,Clear,0,2013-03-30 08:35:00
4:55 AM,41.0,35.6,81,30.24,10.0,Calm,Calm,-,N/A,,Clear,0,2013-03-30 08:55:00
5:15 AM,41.0,35.6,81,30.23,10.0,Calm,Calm,-,N/A,,Clear,0,2013-03-30 09:15:00
5:35 AM,41.0,35.6,81,30.24,10.0,Calm,Calm,-,N/A,,Clear,0,2013-03-30 09:35:00
5:55 AM,39.2,35.6,87,30.24,10.0,Calm,Calm,-,N/A,,Clear,0,2013-03-30 09:55:00
6:15 AM,39.2,35.6,87,30.23,10.0,Calm,Calm,-,N/A,,Clear,0,2013-03-30 10:15:00
6:35 AM,39.2,35.6,87,30.23,10.0,Calm,Calm,-,N/A,,Clear,0,2013-03-30 10:35:00
6:50 AM,39.2,35.6,87,30.25,10.0,Calm,Calm,-,N/A,,Clear,0,2013-03-30 10:50:00
7:50 AM,39.2,35.6,87,30.26,10.0,Calm,Calm,-,N/A,,Clear,0,2013-03-30 11:50:00
8:50 AM,46.4,39.2,76,30.28,10.0,Calm,Calm,-,N/A,,Clear,0,2013-03-30 12:50:00
9:50 AM,62.6,41.0,45,30.29,10.0,Calm,Calm,-,N/A,,Clear,0,2013-03-30 13:50:00
10:48 AM,68.0,42.8,40,30.27,10.0,South,8.1,-,N/A,,Clear,180,2013-03-30 14:48:00
11:50 AM,71.6,46.4,41,30.25,10.0,SSW,11.5,18.4,N/A,,Clear,210,2013-03-30 15:50:00
12:50 PM,73.4,44.6,36,30.23,10.0,South,9.2,18.4,N/A,,Partly Cloudy,190,2013-03-30 16:50:00
1:50 PM,73.4,44.6,36,30.21,10.0,SW,5.8,17.3,N/A,,Scattered Clouds,220,2013-03-30 17:50:00
2:50 PM,73.4,44.6,36,30.17,10.0,SSW,13.8,18.4,N/A,,Scattered Clouds,200,2013-03-30 18:50:00
3:50 PM,75.2,42.8,31,30.15,10.0,WSW,10.4,-,N/A,,Mostly Cloudy,240,2013-03-30 19:50:00
4:50 PM,77.0,42.8,29,30.14,10.0,WSW,10.4,19.6,N/A,,Clear,240,2013-03-30 20:50:00
5:50 PM,73.4,41.0,31,30.14,10.0,West,13.8,-,N/A,,Clear,260,2013-03-30 21:50:00
6:50 PM,71.6,39.2,31,30.15,10.0,WSW,11.5,18.4,N/A,,Clear,240,2013-03-30 22:50:00
7:55 PM,66.2,37.4,35,30.17,10.0,WSW,5.8,-,N/A,,Clear,250,2013-03-30 23:55:00
8:15 PM,64.4,39.2,40,30.17,10.0,West,4.6,-,N/A,,Clear,260,2013-03-31 00:15:00
8:35 PM,64.4,39.2,40,30.18,10.0,Calm,Calm,-,N/A,,Clear,0,2013-03-31 00:35:00
8:55 PM,62.6,41.0,45,30.18,10.0,West,4.6,-,N/A,,Clear,270,2013-03-31 00:55:00
9:15 PM,62.6,42.8,48,30.18,10.0,Calm,Calm,-,N/A,,Clear,0,2013-03-31 01:15:00
9:35 PM,60.8,42.8,52,30.18,10.0,Calm,Calm,-,N/A,,Clear,0,2013-03-31 01:35:00
9:55 PM,57.2,42.8,59,30.18,10.0,Calm,Calm,-,N/A,,Clear,0,2013-03-31 01:55:00
10:15 PM,57.2,42.8,59,30.19,10.0,SSW,4.6,-,N/A,,Clear,200,2013-03-31 02:15:00
10:35 PM,55.4,42.8,63,30.19,10.0,Calm,Calm,-,N/A,,Clear,0,2013-03-31 02:35:00
10:55 PM,55.4,44.6,67,30.19,10.0,South,3.5,-,N/A,,Clear,190,2013-03-31 02:55:00
11:15 PM,53.6,44.6,72,30.19,10.0,Calm,Calm,-,N/A,,Clear,0,2013-03-31 03:15:00
11:35 PM,53.6,42.8,67,30.18,10.0,South,3.5,-,N/A,,Clear,190,2013-03-31 03:35:00
11:55 PM,51.8,44.6,76,30.18,10.0,Calm,Calm,-,N/A,,Clear,0,2013-03-31 03:55:00